Wind_Speed
17 20 23 22 21 24 28 29 29 28 32 37 37 36 38 40 43 47 49 50 51 50 50 49 50 49 46 44 41 38 33 32 33 34 35 31 28 28 26 21 18 18 20 17
17 21 23 22 25 28 30 31 33 36 37 37 40 40 43 47 49 50 49 50 52 53 53 53 52 49 47 48 44 40 37 32 30 33 35 31 27 26 22 18 16 13 15 12
21 22 23 25 27 28 30 31 32 34 37 38 41 45 50 54 58 56 58 62 65 63 58 57 55 52 50 49 44 41 38 35 31 33 35 32 27 25 24 20 14 11 14 13
26 26 26 30 32 32 33 35 36 38 41 44 48 51 52 58 63 65 67 67 71 68 62 57 56 58 55 50 45 41 39 37 31 31 32 32 28 24 24 21 18 13 13 14
32 32 30 31 33 33 36 39 39 42 45 47 50 56 56 62 68 72 74 72 73 72 69 66 64 66 66 61 51 42 40 38 32 32 30 31 28 24 23 22 20 15 16 16
33 35 36 34 36 40 43 43 41 47 50 55 56 58 58 64 68 75 76 73 74 76 73 71 71 70 68 68 60 50 44 40 37 34 31 31 29 26 23 22 21 18 18 19
36 39 40 40 39 39 43 45 49 54 54 62 64 62 68 68 75 82 79 79 80 77 75 77 77 75 74 68 62 54 50 46 41 39 35 30 28 28 26 21 19 18 18 20
39 40 40 39 40 40 47 49 53 59 63 67 68 70 74 77 80 80 79 79 77 72 69 71 74 74 72 66 62 60 54 47 40 38 34 27 28 29 28 21 19 17 15 16
37 39 41 42 44 47 52 55 59 63 68 72 75 77 78 80 81 80 78 77 66 58 59 63 65 62 61 60 62 58 55 52 46 38 35 31 33 31 30 23 18 15 12 11
38 40 42 45 49 53 57 60 65 69 70 74 79 83 84 82 81 77 68 56 56 58 60 65 64 58 52 50 60 59 54 50 46 45 35 34 36 34 30 24 20 18 14 12
39 43 47 50 55 60 64 66 71 73 75 75 80 78 76 71 62 51 48 53 50 52 58 63 61 56 47 38 51 58 56 54 47 41 38 35 35 35 32 26 23 23 19 16
43 50 55 60 65 70 73 75 79 78 75 70 65 64 60 52 46 45 48 50 52 53 53 54 54 52 45 37 37 50 57 51 50 50 43 38 38 36 35 30 26 25 22 20
55 60 64 70 74 77 77 77 76 71 64 62 61 57 51 48 49 50 50 51 51 52 50 42 39 38 33 30 29 42 54 55 55 57 48 38 36 36 34 32 29 28 25 23
63 68 71 77 79 79 78 73 64 57 56 51 47 43 44 47 50 51 51 49 50 51 50 40 34 31 29 27 27 39 48 48 48 54 46 38 37 37 36 33 31 30 28 26
69 75 78 80 79 77 70 61 55 50 42 40 40 40 43 46 47 48 51 52 53 53 47 40 36 32 26 25 26 34 43 41 38 41 44 43 41 39 37 34 32 30 29 28
75 78 78 80 77 67 59 54 49 43 40 39 40 41 43 46 49 52 55 58 56 51 43 36 35 34 30 26 27 32 41 42 39 41 46 46 40 40 39 36 31 28 26 26
76 78 77 73 65 56 51 45 40 38 39 41 43 47 50 52 57 60 57 53 48 42 32 27 29 33 30 27 28 32 41 41 42 46 44 43 39 40 40 36 30 28 27 27
75 74 68 60 54 51 46 38 33 36 41 43 47 56 61 62 64 58 50 47 42 34 31 30 30 30 26 25 26 32 40 41 43 43 41 40 40 40 41 37 31 30 29 29
73 65 57 52 49 45 38 32 33 37 40 45 56 66 68 63 55 50 47 44 36 29 27 28 28 24 23 25 27 35 36 35 38 40 40 41 39 38 39 38 32 29 26 24
65 57 50 46 42 35 31 32 35 39 45 52 62 64 56 52 50 46 40 37 30 24 21 20 14 13 17 21 33 36 33 34 33 33 36 41 40 36 35 35 32 28 23 22
60 54 45 40 34 30 32 34 38 45 52 60 64 58 52 48 45 40 33 30 24 15 11 8 9 10 18 33 40 39 37 37 36 35 37 39 38 37 35 35 33 28 21 21
57 48 40 34 27 27 31 37 43 48 54 58 56 53 50 51 42 27 23 25 25 17 8 4 11 22 35 40 40 39 41 41 38 34 34 33 31 33 36 36 35 31 25 20
52 44 38 30 26 25 30 36 39 45 52 52 47 46 46 49 43 32 26 27 27 26 25 26 29 31 34 34 35 37 36 33 34 35 31 30 28 29 36 39 36 33 30 24
47 43 35 26 23 24 27 30 33 39 46 45 40 37 37 36 33 34 36 34 32 29 24 22 24 28 31 33 35 39 37 32 32 32 27 25 26 27 33 40 39 34 33 31
47 40 31 23 21 23 26 28 31 36 39 39 35 29 30 28 26 28 27 24 23 24 23 19 19 26 31 32 34 35 33 28 25 24 22 21 18 20 30 35 34 31 30 28
44 36 29 24 23 25 26 27 29 34 37 37 32 27 26 26 25 25 23 20 19 18 21 22 25 28 29 29 32 31 28 26 22 20 20 19 17 20 24 27 26 25 24 22
40 32 24 21 21 21 21 23 28 33 35 36 32 27 24 23 25 26 28 27 22 19 21 25 27 29 32 31 30 28 25 22 21 22 21 18 18 19 21 23 24 23 21 18
Wind_Direction
304 295 292 294 290 284 281 281 279 281 281 285 291 296 298 299 301 301 299 298 300 301 300 300 298 299 301 302 301 300 302 308 315 319 316 309 306 305 308 307 298 289 291 287
312 302 300 294 287 285 285 284 283 284 284 292 298 298 298 298 296 294 292 293 295 297 297 298 296 296 299 300 300 299 296 301 308 312 313 307 305 307 311 311 306 300 294 293
314 305 303 295 295 295 294 293 290 290 292 292 291 291 289 288 291 291 293 295 297 300 298 297 295 295 296 297 297 296 293 294 302 306 308 304 299 304 307 303 297 305 292 277
315 311 313 308 309 307 304 301 300 300 299 298 297 294 290 287 288 291 295 295 296 298 294 293 290 289 293 289 288 286 286 288 293 295 297 293 291 293 297 292 289 295 291 282
317 314 313 310 310 306 302 300 302 302 298 293 289 288 283 278 283 291 293 292 291 294 293 290 289 286 286 286 280 274 273 278 282 283 287 286 283 287 286 282 284 291 290 291
316 314 314 315 313 309 307 306 303 299 297 292 289 287 284 279 282 290 294 293 294 295 290 287 291 289 283 279 273 266 261 266 270 273 275 277 274 276 278 279 276 278 284 289
314 313 313 312 309 306 301 300 294 295 295 293 295 294 292 287 287 292 294 294 295 295 292 291 292 290 286 279 266 257 254 260 263 258 261 267 268 265 266 269 265 267 275 282
312 308 306 303 300 295 291 294 293 295 295 295 294 292 291 291 292 294 296 296 296 295 295 296 294 288 280 270 257 247 246 249 248 245 249 251 254 256 259 257 254 256 268 277
308 306 306 306 302 300 300 300 300 298 297 294 293 293 293 293 294 296 297 296 294 292 294 298 301 299 287 263 247 239 234 235 235 232 237 245 247 244 246 249 249 249 252 262
310 311 310 308 307 305 303 301 298 295 293 291 291 291 294 294 295 296 294 291 292 294 297 299 300 304 304 271 245 240 227 223 230 234 227 241 243 237 235 238 241 239 236 234
317 318 315 311 310 309 308 304 300 299 295 292 296 299 299 299 297 294 292 295 296 295 299 300 302 304 307 285 249 239 225 225 223 219 216 228 235 226 223 230 236 230 223 219
323 322 319 318 318 315 311 307 307 308 307 306 306 306 305 304 304 304 300 298 300 299 297 296 297 299 299 296 265 236 222 225 224 226 215 223 229 220 217 222 228 223 216 214
326 325 323 321 317 313 310 310 311 312 312 311 312 311 313 314 313 313 311 309 308 307 306 302 300 302 297 294 271 240 225 216 215 217 207 212 220 215 210 217 219 215 209 210
330 328 324 320 316 315 314 316 317 316 315 314 313 314 314 312 312 312 310 309 310 310 307 297 282 286 287 282 269 242 230 220 207 205 199 207 211 208 204 211 211 207 205 206
330 329 324 319 316 317 318 319 318 318 318 316 317 319 320 319 319 315 310 306 306 307 301 290 276 273 279 267 263 242 231 228 212 197 200 207 206 201 200 207 206 203 202 207
329 327 323 319 319 321 320 318 320 321 323 326 327 326 325 324 322 315 307 304 303 304 298 286 280 272 265 258 261 245 232 230 215 198 204 208 203 200 199 203 202 200 202 207
328 326 324 324 325 325 321 321 323 325 328 328 328 328 323 315 317 316 310 304 303 304 295 282 278 275 261 253 254 236 225 222 213 208 212 215 206 201 198 199 200 201 205 209
328 328 328 328 329 327 324 324 328 330 333 327 324 325 323 318 319 320 312 304 302 296 292 284 280 273 258 250 241 218 212 211 210 212 214 209 201 200 196 194 200 205 211 219
330 330 329 329 329 326 326 329 333 332 330 326 325 326 324 322 322 319 315 311 302 298 294 288 282 263 246 245 215 199 198 199 202 207 209 207 196 202 198 194 200 207 211 216
331 330 329 329 329 329 328 333 337 336 334 331 333 334 329 324 324 327 327 324 314 300 289 284 270 234 240 207 180 178 181 185 191 197 196 192 193 196 193 193 197 201 202 202
332 331 330 330 333 335 339 341 340 337 334 334 338 343 342 338 332 331 333 342 339 319 295 280 249 224 174 163 162 167 171 178 185 187 183 185 193 194 194 194 194 194 195 196
333 334 332 330 334 343 352 354 350 349 346 344 348 353 354 354 356 347 349 3 12 17 29 94 151 158 153 156 159 165 168 172 176 180 181 184 194 200 199 195 195 200 204 199
338 338 333 333 335 343 354 354 356 358 352 350 352 357 360 4 17 29 39 45 45 56 78 104 131 149 151 150 152 154 157 162 170 168 178 187 193 199 202 200 201 206 210 208
342 341 337 335 337 343 348 351 356 356 357 360 360 6 13 23 35 43 51 61 70 76 87 107 127 139 142 141 145 147 147 150 161 168 178 193 206 211 203 199 202 206 211 217
344 343 337 331 335 342 348 356 358 360 3 2 4 15 23 28 34 36 46 59 69 77 87 102 125 134 133 136 144 153 157 156 157 164 174 175 179 188 187 188 190 196 206 214
344 343 337 333 340 348 354 359 358 1 4 5 5 12 25 32 31 31 32 35 46 73 96 115 131 128 128 135 142 147 155 158 157 163 168 172 168 159 159 166 177 190 198 202
343 340 334 330 337 343 349 352 354 360 2 0 3 6 13 25 34 35 33 35 44 81 114 127 127 125 127 129 132 134 139 148 155 162 169 176 178 173 166 168 175 181 184 188
Height
5850 5846 5843 5841 5839 5836 5833 5830 5826 5824 5820 5815 5813 5810 5805 5801 5796 5791 5786 5779 5774 5768 5765 5761 5757 5753 5751 5748 5744 5740 5736 5732 5727 5722 5718 5713 5710 5707 5703 5698 5695 5693 5690 5686
5846 5841 5839 5836 5833 5830 5827 5824 5821 5817 5813 5810 5805 5801 5796 5790 5784 5779 5773 5767 5762 5758 5754 5750 5746 5743 5741 5739 5734 5731 5727 5723 5720 5714 5711 5707 5704 5701 5698 5694 5690 5689 5687 5685
5842 5837 5833 5828 5827 5823 5820 5817 5814 5810 5806 5801 5795 5791 5784 5777 5770 5764 5758 5752 5746 5744 5740 5735 5731 5728 5727 5725 5722 5718 5717 5714 5712 5707 5703 5701 5698 5695 5693 5690 5687 5686 5684 5684
5834 5831 5828 5823 5818 5816 5811 5807 5803 5799 5794 5788 5781 5775 5770 5763 5753 5745 5739 5735 5730 5727 5723 5718 5715 5712 5712 5711 5710 5707 5706 5704 5701 5699 5696 5694 5692 5689 5687 5685 5682 5681 5680 5680
5825 5822 5821 5818 5812 5807 5802 5797 5793 5788 5781 5775 5768 5761 5754 5746 5737 5731 5725 5717 5711 5707 5704 5700 5697 5696 5693 5693 5695 5695 5693 5692 5691 5689 5687 5686 5683 5683 5679 5678 5677 5674 5674 5674
5817 5813 5810 5810 5804 5796 5790 5783 5780 5772 5764 5757 5749 5742 5737 5730 5720 5710 5705 5698 5690 5683 5679 5676 5672 5671 5671 5670 5673 5676 5677 5677 5679 5679 5677 5676 5675 5677 5673 5670 5671 5669 5668 5668
5812 5806 5801 5798 5792 5786 5779 5773 5766 5756 5748 5739 5732 5723 5716 5709 5698 5687 5680 5672 5665 5659 5654 5651 5648 5644 5641 5642 5645 5651 5657 5659 5663 5667 5666 5665 5665 5668 5667 5663 5664 5664 5663 5663
5803 5798 5794 5788 5781 5777 5768 5759 5750 5742 5733 5723 5713 5703 5693 5684 5674 5667 5659 5651 5642 5634 5629 5626 5621 5616 5613 5613 5617 5624 5633 5639 5645 5649 5651 5652 5654 5658 5661 5657 5656 5658 5657 5658
5793 5788 5780 5775 5768 5759 5752 5743 5734 5723 5712 5700 5689 5680 5671 5662 5653 5645 5637 5628 5621 5613 5608 5603 5596 5587 5580 5580 5588 5597 5608 5618 5625 5631 5633 5639 5643 5647 5651 5651 5650 5652 5652 5653
5782 5776 5769 5761 5753 5745 5735 5726 5715 5703 5690 5678 5667 5657 5648 5639 5630 5621 5614 5608 5601 5594 5587 5582 5574 5565 5556 5553 5560 5572 5585 5596 5607 5614 5619 5626 5631 5637 5642 5644 5644 5647 5647 5649
5774 5766 5757 5748 5738 5727 5716 5706 5694 5681 5669 5657 5647 5635 5624 5616 5607 5600 5597 5593 5586 5578 5572 5565 5559 5551 5543 5536 5536 5546 5562 5573 5585 5597 5604 5612 5619 5626 5632 5636 5638 5641 5642 5645
5765 5754 5744 5732 5720 5708 5696 5685 5672 5659 5646 5634 5624 5611 5601 5594 5587 5583 5579 5574 5568 5561 5554 5546 5540 5537 5532 5527 5523 5527 5543 5556 5569 5580 5590 5599 5607 5615 5622 5627 5631 5634 5637 5641
5750 5739 5728 5715 5701 5687 5674 5662 5649 5636 5622 5611 5605 5593 5584 5576 5571 5565 5559 5554 5549 5543 5537 5531 5526 5522 5520 5519 5516 5520 5530 5542 5552 5563 5576 5588 5595 5603 5612 5618 5623 5627 5631 5636
5737 5725 5714 5698 5682 5668 5655 5642 5630 5620 5609 5599 5590 5582 5575 5568 5560 5552 5545 5538 5533 5527 5521 5517 5513 5511 5511 5512 5511 5512 5518 5526 5535 5547 5560 5574 5584 5593 5602 5609 5615 5620 5625 5630
5723 5709 5694 5679 5664 5651 5638 5625 5614 5606 5596 5587 5579 5572 5565 5556 5547 5539 5530 5522 5516 5510 5505 5501 5501 5501 5500 5501 5503 5504 5510 5516 5526 5534 5548 5562 5574 5583 5593 5602 5608 5613 5618 5623
5710 5694 5677 5660 5646 5632 5620 5610 5600 5591 5583 5575 5568 5561 5552 5543 5535 5525 5515 5505 5497 5492 5487 5484 5485 5487 5487 5489 5492 5495 5501 5508 5517 5528 5541 5554 5565 5575 5586 5595 5602 5608 5614 5618
5692 5676 5659 5643 5630 5619 5608 5600 5592 5584 5575 5566 5558 5549 5540 5529 5517 5507 5497 5486 5478 5472 5469 5469 5470 5472 5474 5477 5482 5486 5493 5502 5511 5523 5535 5547 5558 5569 5580 5589 5597 5604 5609 5614
5673 5657 5642 5629 5619 5609 5600 5593 5585 5577 5567 5558 5548 5538 5526 5512 5499 5486 5476 5468 5463 5459 5455 5453 5453 5457 5460 5464 5469 5476 5486 5497 5507 5520 5530 5541 5553 5563 5573 5583 5591 5598 5603 5608
5659 5646 5634 5624 5614 5602 5594 5587 5579 5570 5560 5550 5540 5526 5510 5493 5481 5469 5457 5449 5444 5441 5441 5439 5438 5441 5447 5452 5458 5468 5480 5493 5505 5517 5528 5539 5549 5559 5568 5578 5585 5592 5597 5602
5650 5637 5626 5617 5606 5596 5589 5582 5573 5564 5554 5544 5531 5515 5497 5484 5470 5458 5445 5435 5427 5426 5427 5427 5427 5432 5438 5443 5454 5467 5479 5493 5505 5517 5527 5537 5548 5556 5564 5573 5580 5587 5593 5598
5640 5628 5617 5607 5599 5592 5585 5577 5568 5558 5549 5537 5522 5504 5489 5474 5461 5449 5438 5428 5419 5416 5417 5420 5423 5428 5435 5444 5456 5468 5481 5494 5506 5517 5527 5538 5546 5554 5562 5570 5576 5583 5589 5594
5631 5619 5609 5600 5593 5588 5581 5574 5566 5557 5546 5533 5519 5502 5487 5473 5458 5445 5436 5429 5423 5419 5419 5421 5425 5432 5440 5451 5461 5472 5484 5497 5508 5519 5528 5538 5546 5553 5560 5567 5574 5581 5587 5591
5623 5612 5602 5594 5588 5584 5578 5572 5565 5557 5545 5532 5519 5506 5491 5478 5464 5451 5443 5440 5438 5434 5433 5435 5440 5446 5454 5463 5471 5481 5491 5502 5513 5523 5532 5539 5546 5551 5556 5564 5571 5578 5584 5588
5617 5607 5598 5591 5587 5581 5577 5573 5565 5557 5547 5535 5524 5513 5502 5492 5480 5469 5462 5458 5455 5455 5454 5455 5457 5461 5466 5472 5480 5489 5499 5510 5520 5529 5536 5540 5544 5548 5553 5560 5568 5575 5580 5585
5611 5602 5595 5590 5586 5581 5576 5570 5564 5558 5549 5540 5530 5521 5512 5504 5496 5488 5481 5476 5471 5469 5468 5469 5469 5471 5476 5483 5490 5499 5509 5518 5525 5531 5536 5540 5542 5543 5549 5558 5565 5572 5578 5583
5607 5600 5593 5587 5582 5578 5574 5569 5563 5556 5549 5542 5533 5526 5520 5513 5507 5501 5495 5490 5486 5483 5481 5481 5481 5483 5488 5493 5500 5508 5515 5522 5528 5532 5537 5542 5546 5549 5554 5560 5567 5572 5576 5580
5606 5599 5593 5589 5583 5579 5574 5569 5563 5557 5549 5542 5535 5529 5524 5519 5514 5510 5505 5500 5495 5493 5492 5493 5493 5495 5500 5504 5510 5515 5520 5527 5532 5537 5541 5546 5550 5554 5558 5563 5567 5572 5576 5580